Baton Rouge, LA

1:50 PM CST on November 20, 2017 (GMT -0600)
Baton Rouge Metro-Ryan

Weather History for KBTR - February, 2013

Change the Weather History Date:

Monday, February 4, 2013

  Actual Average Record
Temperature  
Mean Temperature 52 °F 53 °F  
Max Temperature 61 °F 64 °F 85 °F (1957)
Min Temperature 42 °F 43 °F 15 °F (1996)
Degree Days  
Heating Degree Days 13 12  
Month to date heating degree days 43 51  
Since 1 July heating degree days 961 1091  
Cooling Degree Days 0 1  
Month to date cooling degree days 0 2  
Year to date cooling degree days 21 15  
Growing Degree Days 2 (Base 50)    
Moisture  
Dew Point 47 °F    
Average Humidity 77    
Maximum Humidity 93    
Minimum Humidity 60    
Precipitation  
Precipitation 0.09 in 0.18 in 2.82 in (1986)
Month to date precipitation 0.09 0.77  
Year to date precipitation 14.76 6.49  
Snow  
Snow 0.00 in - - ()
Month to date snowfall 0.0  
Since 1 July snowfall 0.0  
Snow Depth 0.00 in    
Sea Level Pressure  
Sea Level Pressure 30.01 in    
Wind  
Wind Speed 5 mph (East)    
Max Wind Speed 10 mph    
Max Gust Speed 14 mph    
Visibility 9 miles    
Events Rain    
T = Trace of Precipitation, MM = Missing Value Source: NWS Daily Summary

Daily Weather History Graph

Daily Weather History Graph

Search for Another Location

Airport or City:

Trip Planner

Search our weather history database for the weather conditions in past years. The results will help you decide how hot, cold, wet, or windy it might be!

Date:

Astronomy

Feb. 04, 2013 Rise Set
Actual Time 6:53 AM CST 5:43 PM CST
Civil Twilight 6:28 AM CST 6:08 PM CST
Nautical Twilight 5:59 AM CST 6:37 PM CST
Astronomical Twilight 5:31 AM CST 7:05 PM CST
Moon 1:24 AM CST (2/4) 12:13 PM CST (2/4)
Length of Visible Light 11h 40m
Length of Day
10h 50m
Last Quarter, 37% of the Moon is Illuminated
Feb 4
Last Quarter
Feb 10
New
Feb 17
First Quarter
Feb 25
Full
Mar 4
Last Quarter

Hourly Weather History & Observations

Time (CST) Temp. Windchill Dew Point Humidity Pressure Visibility Wind Dir Wind Speed Gust Speed Precip Events Conditions
12:53 AM 43.0 °F - 37.9 °F 82% 30.09 in 10.0 mi Calm Calm - N/A   Clear
1:53 AM 43.0 °F - 39.0 °F 86% 30.10 in 10.0 mi Calm Calm - N/A   Clear
2:53 AM 45.0 °F 43.5 °F 39.0 °F 80% 30.08 in 10.0 mi NE 3.5 mph - N/A   Clear
4:53 AM 46.9 °F - 37.0 °F 68% 30.06 in 10.0 mi East 4.6 mph - N/A   Clear
5:53 AM 48.2 °F - 37.4 °F 66% 30.07 in 10.0 mi East 3.5 mph - N/A   Clear
6:53 AM 48.9 °F - 36.0 °F 61% 30.08 in 10.0 mi Calm Calm - N/A   Clear
7:53 AM 48.9 °F - 37.0 °F 64% 30.09 in 10.0 mi Calm Calm - N/A   Clear
8:53 AM 50.0 °F - 39.9 °F 68% 30.08 in 10.0 mi ENE 4.6 mph - N/A   Clear
9:53 AM 53.1 °F - 42.1 °F 66% 30.08 in 10.0 mi ENE 5.8 mph - N/A   Clear
10:53 AM 55.0 °F - 44.1 °F 67% 30.07 in 10.0 mi East 5.8 mph - N/A   Clear
11:53 AM 57.9 °F - 46.9 °F 67% 30.06 in 10.0 mi East 5.8 mph - N/A   Scattered Clouds
12:53 PM 60.1 °F - 46.0 °F 60% 30.02 in 10.0 mi ESE 5.8 mph - N/A   Overcast
1:53 PM 60.1 °F - 46.0 °F 60% 30.00 in 10.0 mi ESE 6.9 mph - N/A   Overcast
2:53 PM 55.9 °F - 53.1 °F 90% 29.99 in 10.0 mi East 4.6 mph - 0.04 in Rain Light Rain
3:53 PM 55.0 °F - 52.0 °F 89% 29.96 in 10.0 mi ESE 8.1 mph - 0.05 in   Mostly Cloudy
4:53 PM 55.0 °F - 52.0 °F 89% 29.96 in 10.0 mi East 5.8 mph - N/A   Mostly Cloudy
5:53 PM 55.0 °F - 52.0 °F 89% 29.95 in 10.0 mi East 6.9 mph - N/A   Overcast
6:53 PM 55.0 °F - 51.1 °F 86% 29.96 in 10.0 mi East 5.8 mph - N/A   Partly Cloudy
7:53 PM 54.0 °F - 51.1 °F 90% 29.96 in 10.0 mi East 5.8 mph - N/A   Mostly Cloudy
8:53 PM 54.0 °F - 52.0 °F 93% 29.97 in 10.0 mi ESE 5.8 mph - 0.00 in Rain Light Rain
9:44 PM 53.6 °F - 51.8 °F 94% 29.97 in 10.0 mi East 4.6 mph - 0.00 in Rain Light Rain
9:53 PM 54.0 °F - 53.1 °F 97% 29.97 in 10.0 mi East 4.6 mph - 0.00 in   Mostly Cloudy
10:53 PM 54.0 °F - 53.1 °F 97% 29.96 in 9.0 mi ESE 5.8 mph - 0.00 in Rain Light Rain
11:00 PM 53.6 °F - 53.6 °F 100% 29.96 in 9.0 mi East 4.6 mph - 0.00 in Rain Light Rain
11:40 PM 55.4 °F - 53.6 °F 94% 29.95 in 1.8 mi ESE 4.6 mph - 0.00 in Rain Light Rain
11:53 PM 55.0 °F - 54.0 °F 96% 29.95 in 0.8 mi ESE 5.8 mph - 0.00 in Rain Light Rain